Home > Weather > Mumbai > Past weeks

Flag for India Weather for the Past 2 Weeks in Mumbai, Maharashtra, India

Now
86 °F

Haze.


Feels Like: 95 °F
Forecast: 84 / 88 °F
Wind: 9 mph from Northwest

Location: Mumbai / Santacruz

Current Time: May 3, 2016 at 8:07:21 PM

Latest Report: May 3, 2016 at 7:30 PM


Visibility: 3 mi

Pressure: 29.74 "Hg

Humidity: 70%

Dew Point: 75 °F

Location of MumbaiLocation

Historic Weather in Mumbai — Graph

°F

Mumbai Temperature Yesterday

Maximum temperature yesterday: 93 °F (at 3:00 PM)
Minimum temperature yesterday: 82 °F (at 3:30 AM)
Average temperature yesterday: 86 °F

High & Low Weather Summary for the Past Weeks

 TemperatureHumidityPressure
High100 °F (Apr 27, 11:30 AM)89% (Apr 29, 3:30 AM)29.89 "Hg (Apr 29, 3:30 AM)
Low79 °F (Apr 26, 6:00 AM)25% (Apr 27, 8:00 PM)29.68 "Hg (Apr 27, 5:30 PM)
Average86 °F68%29.78 "Hg
* Reported Apr 18 6:30 PM — May 3 7:00 PM, Mumbai, Weather by CustomWeather, © 2016

Note: Actual official high and low records may vary slightly from our data, if they occured in-between our weather recording intervals... More about our weather records

Advertising

Mumbai Weather History for the Previous 24 Hours

Scroll right to see more
 ConditionsComfort  
Time TempWeatherWind HumidityBarometerVisibility
7:00 PM
Tue, May 3
86 °FClear.12 mph70%29.74 "Hg4 mi
6:30 PM88 °FClear.8 mph70%29.74 "Hg5 mi
6:00 PM88 °FSunny.8 mph70%29.74 "Hg10 mi
5:30 PM88 °FSunny.8 mph66%29.71 "Hg10 mi
5:00 PM88 °FSunny.10 mph70%29.74 "Hg10 mi
4:30 PM90 °FPassing clouds.9 mph67%29.74 "HgN/A
4:00 PM90 °FPassing clouds.12 mph67%29.74 "HgN/A
3:30 PM90 °FPassing clouds.12 mph67%29.74 "HgN/A
3:00 PM90 °FPassing clouds.10 mph67%29.74 "HgN/A
2:30 PM90 °FPassing clouds.9 mph67%29.77 "Hg5 mi
1:30 PM90 °FHaze.15 mph67%29.77 "Hg3 mi
1:00 PM91 °FHaze.14 mph63%29.80 "Hg3 mi
12:30 PM90 °FHaze.13 mph67%29.80 "Hg3 mi
12:00 PM91 °FScattered clouds.12 mph63%29.80 "Hg2 mi
11:30 AM91 °FScattered clouds.10 mph63%29.80 "Hg2 mi
11:00 AM91 °FScattered clouds.10 mph63%29.83 "Hg2 mi
10:30 AM93 °FScattered clouds.7 mph47%29.83 "Hg2 mi
10:00 AM91 °FScattered clouds.No wind49%29.83 "Hg2 mi
9:30 AM90 °FScattered clouds.3 mph59%29.83 "Hg2 mi
8:30 AM84 °FScattered clouds.3 mph74%29.80 "Hg2 mi
8:00 AM84 °FScattered clouds.3 mph74%29.80 "Hg2 mi
7:30 AM84 °FScattered clouds.3 mph74%29.80 "Hg2 mi
6:30 AM84 °FPassing clouds.No wind74%29.77 "Hg2 mi
6:00 AM82 °FPassing clouds.No wind79%29.74 "Hg2 mi
5:30 AM82 °FHaze.No wind84%29.74 "Hg2 mi
5:00 AM82 °FHaze.3 mph84%29.74 "Hg2 mi
4:30 AM82 °FHaze.5 mph84%29.74 "Hg2 mi
3:30 AM82 °FHaze.3 mph84%29.74 "Hg2 mi
3:00 AM84 °FHaze.3 mph79%29.74 "Hg2 mi
2:30 AM84 °FHaze.5 mph79%29.74 "Hg2 mi
2:00 AM84 °FHaze.No wind79%29.74 "Hg2 mi
1:30 AM82 °FHaze.3 mph79%29.77 "Hg2 mi
1:00 AM82 °FHaze.3 mph79%29.77 "Hg2 mi
12:30 AM84 °FHaze.3 mph79%29.77 "Hg2 mi
12:00 AM84 °FHaze.5 mph79%29.80 "Hg2 mi
11:30 PM
Mon, May 2
84 °FHaze.6 mph79%29.80 "Hg2 mi
11:00 PM84 °FHaze.7 mph79%29.80 "Hg2 mi
10:30 PM84 °FHaze.3 mph79%29.80 "Hg2 mi
10:00 PM84 °FHaze.6 mph79%29.80 "Hg2 mi
9:30 PM84 °FHaze.7 mph79%29.80 "Hg2 mi
9:00 PM84 °FHaze.9 mph79%29.80 "Hg2 mi
8:30 PM84 °FHaze.8 mph84%29.77 "Hg2 mi
8:00 PM86 °FHaze.10 mph75%29.77 "Hg2 mi
Weather by CustomWeather, © 2016

See weather overviewHow to use our weather pages